[Date Prev][Date Next][Thread Prev][Thread Next] - [Date Index][Thread Index][Author Index]
2 Line ISS Keps 12-22
- Subject: [sarex] 2 Line ISS Keps 12-22
- From: "Dave Larsen PhD" <doc@xxxxxxxxxxx>
- Date: Sat, 22 Dec 2001 02:36:27 -0800
ISS
1 25544U 98067A 01356.18287037 .00077843 00000-0 92566-3 0 8721
2 25544 51.6385 222.7402 0002810 52.6475 82.3588 15.60442005176419
----
Via the sarex mailing list at AMSAT.ORG courtesy of AMSAT-NA.
To unsubscribe, send "unsubscribe sarex" to Majordomo@amsat.org
AMSAT Home